CW3109 Weather Reports


Display with metric or nautical units.
time (UTC)temp
F
wind
direction
speed
MPH
gust
MPH
rain 1hr
in
rain 24hr
in
rain mn
in
humidity
%
barometer
mb
20210929022904 63 260 12.0 17.0 0.00 0.00 0.00 68 1013.6
20210929022404 63 265 11.0 17.0 0.00 0.00 0.00 68 1013.6
20210929021904 64 262 7.0 14.0 0.00 0.00 0.00 67 1013.6
20210929021405 64 264 8.0 15.0 0.00 0.00 0.00 67 1013.3
20210929020904 64 251 8.0 14.0 0.00 0.00 0.00 67 1013.3
20210929020404 64 276 5.0 12.0 0.00 0.00 0.00 67 1013.3
20210929015903 64 270 4.0 12.0 0.00 0.00 0.00 67 1013.3
20210929015403 64 268 8.0 18.0 0.00 0.00 0.00 66 1013.3
20210929014904 64 280 7.0 13.0 0.00 0.00 0.00 65 1013.3
20210929014405 64 267 9.0 16.0 0.00 0.00 0.00 64 1013.3
20210929013904 65 259 12.0 16.0 0.00 0.00 0.00 64 1013.3
20210929013404 65 272 10.0 16.0 0.00 0.00 0.00 63 1013.3
20210929012904 65 266 9.0 14.0 0.00 0.00 0.00 63 1013.4
20210929012404 65 268 8.0 17.0 0.00 0.00 0.00 63 1013.4
20210929011904 66 248 9.0 18.0 0.00 0.00 0.00 62 1013.4
20210929011404 66 269 10.0 16.0 0.00 0.00 0.00 60 1013.3
20210929010903 66 249 9.0 17.0 0.00 0.00 0.00 60 1013.3
20210929010404 67 271 10.0 15.0 0.00 0.00 0.00 59 1013.3
20210929005905 67 263 8.0 14.0 0.00 0.00 0.00 59 1013.3
20210929005404 68 260 8.0 13.0 0.00 0.00 0.00 58 1013.3
20210929004903 68 261 9.0 17.0 0.00 0.00 0.00 57 1013.3
20210929004404 69 270 10.0 17.0 0.00 0.00 0.00 55 1013.4
20210929003904 69 267 10.0 14.0 0.00 0.00 0.00 55 1013.4
20210929003404 69 269 9.0 15.0 0.00 0.00 0.00 55 1013.4
20210929002905 69 278 9.0 15.0 0.00 0.00 0.00 54 1013.7
20210929002404 69 281 5.0 12.0 0.00 0.00 0.00 54 1013.7
20210929001904 69 272 6.0 13.0 0.00 0.00 0.00 55 1013.7
20210929001404 69 272 7.0 14.0 0.00 0.00 0.00 53 1013.6
20210929000903 69 268 7.0 12.0 0.00 0.00 0.00 54 1013.6
20210929000404 69 260 9.0 14.0 0.00 0.00 0.00 55 1013.6
20210928235904 69 266 10.0 18.0 0.00 0.00 0.00 55 1013.7
20210928235403 69 257 9.0 16.0 0.00 0.00 0.00 55 1013.7
20210928234904 69 257 7.0 17.0 0.00 0.00 0.00 55 1013.7
20210928234404 69 276 10.0 18.0 0.00 0.00 0.00 55 1013.8
20210928233903 70 271 12.0 18.0 0.00 0.00 0.00 54 1013.8
20210928233404 70 272 9.0 15.0 0.00 0.00 0.00 52 1013.8
20210928232905 70 269 10.0 17.0 0.00 0.00 0.00 51 1013.9
20210928232403 69 279 14.0 24.0 0.00 0.00 0.00 52 1013.9
20210928231904 70 261 13.0 21.0 0.00 0.00 0.00 51 1013.9
20210928231404 70 275 10.0 22.0 0.00 0.00 0.00 47 1013.8
20210928230904 70 268 13.0 24.0 0.00 0.00 0.00 48 1013.8
20210928230404 70 264 14.0 22.0 0.00 0.00 0.00 49 1013.8
20210928225904 70 270 12.0 21.0 0.00 0.00 0.00 50 1013.8
20210928225404 70 264 12.0 20.0 0.00 0.00 0.00 47 1013.8
20210928224904 70 272 11.0 18.0 0.00 0.00 0.00 47 1013.8
20210928224404 70 265 13.0 20.0 0.00 0.00 0.00 48 1013.8
20210928223904 71 275 13.0 20.0 0.00 0.00 0.00 48 1013.8
20210928223403 71 274 11.0 16.0 0.00 0.00 0.00 45 1013.8
20210928222904 70 261 12.0 18.0 0.00 0.00 0.00 46 1013.9
20210928222403 70 262 10.0 20.0 0.00 0.00 0.00 47 1013.9
20210928221905 71 266 12.0 20.0 0.00 0.00 0.00 46 1013.9
20210928221404 72 267 12.0 18.0 0.00 0.00 0.00 44 1013.9
20210928220904 71 294 9.0 16.0 0.00 0.00 0.00 44 1013.9
20210928220404 71 267 10.0 17.0 0.00 0.00 0.00 44 1013.9
20210928215905 70 268 10.0 18.0 0.00 0.00 0.00 44 1013.9
20210928215404 70 263 10.0 18.0 0.00 0.00 0.00 44 1013.9
20210928214904 71 270 12.0 17.0 0.00 0.00 0.00 44 1013.9
20210928214403 71 260 8.0 17.0 0.00 0.00 0.00 45 1014.2
20210928213904 71 260 11.0 17.0 0.00 0.00 0.00 45 1014.2
20210928213404 71 259 11.0 16.0 0.00 0.00 0.00 42 1014.2
20210928212904 70 259 13.0 20.0 0.00 0.00 0.00 45 1014.4
20210928212404 70 236 12.0 20.0 0.00 0.00 0.00 45 1014.4
20210928211904 70 259 11.0 20.0 0.00 0.00 0.00 44 1014.4
20210928211404 71 269 12.0 20.0 0.00 0.00 0.00 44 1014.5
20210928210904 71 246 9.0 17.0 0.00 0.00 0.00 40 1014.5
20210928210404 71 264 11.0 20.0 0.00 0.00 0.00 41 1014.5
20210928205904 71 258 13.0 18.0 0.00 0.00 0.00 39 1014.8
20210928205404 71 258 13.0 20.0 0.00 0.00 0.00 34 1014.8
20210928204904 72 263 10.0 20.0 0.00 0.00 0.00 36 1014.8
20210928204404 72 266 12.0 20.0 0.00 0.00 0.00 33 1014.9
20210928203905 71 265 11.0 17.0 0.00 0.00 0.00 33 1014.9
20210928203403 71 280 9.0 14.0 0.00 0.00 0.00 35 1014.9
20210928202904 71 271 13.0 20.0 0.00 0.00 0.00 35 1015.3
20210928202405 71 282 9.0 17.0 0.00 0.00 0.00 36 1015.3
20210928201904 70 257 13.0 17.0 0.00 0.00 0.00 38 1015.3
20210928201404 70 263 10.0 16.0 0.00 0.00 0.00 38 1015.3
20210928200904 70 278 12.0 18.0 0.00 0.00 0.00 39 1015.3
20210928200404 70 267 10.0 17.0 0.00 0.00 0.00 39 1015.3
20210928195904 70 269 9.0 16.0 0.00 0.00 0.00 39 1015.4
20210928195403 70 268 7.0 20.0 0.00 0.00 0.00 40 1015.4
20210928194905 69 255 9.0 17.0 0.00 0.00 0.00 41 1015.4
20210928194403 69 254 10.0 17.0 0.00 0.00 0.00 41 1015.6
20210928193903 68 272 9.0 16.0 0.00 0.00 0.00 44 1015.6
20210928193404 68 279 12.0 17.0 0.00 0.00 0.00 44 1015.6
20210928192904 68 268 14.0 21.0 0.00 0.00 0.00 44 1015.9
20210928192404 68 278 7.0 20.0 0.00 0.00 0.00 45 1015.9
20210928191904 68 273 12.0 20.0 0.00 0.00 0.00 47 1015.9
20210928191405 68 263 9.0 17.0 0.00 0.00 0.00 48 1016.1
20210928190904 67 269 9.0 17.0 0.00 0.00 0.00 49 1016.1
20210928190405 67 251 11.0 15.0 0.00 0.00 0.00 48 1016.1
20210928185904 67 263 12.0 20.0 0.00 0.00 0.00 49 1016.0
20210928185404 68 277 10.0 16.0 0.00 0.00 0.00 48 1016.0
20210928184904 68 261 12.0 17.0 0.00 0.00 0.00 48 1016.0
20210928184404 68 261 10.0 17.0 0.00 0.00 0.00 46 1015.9
20210928183904 68 256 10.0 16.0 0.00 0.00 0.00 45 1015.9
20210928183405 68 300 7.0 14.0 0.00 0.00 0.00 46 1015.9
20210928182904 68 251 12.0 17.0 0.00 0.00 0.00 48 1016.0
20210928182404 68 287 5.0 12.0 0.00 0.00 0.00 45 1016.0
20210928181903 67 274 7.0 14.0 0.00 0.00 0.00 46 1016.0
20210928181404 67 254 7.0 12.0 0.00 0.00 0.00 50 1016.4
20210928180904 66 268 4.0 12.0 0.00 0.00 0.00 50 1016.4
20210928180405 66 248 7.0 14.0 0.00 0.00 0.00 51 1016.4
20210928175903 66 266 8.0 12.0 0.00 0.00 0.00 50 1016.5
20210928175404 66 274 7.0 13.0 0.00 0.00 0.00 49 1016.5
20210928174904 66 272 5.0 7.0 0.00 0.00 0.00 49 1016.5
20210928174404 66 275 5.0 9.0 0.00 0.00 0.00 50 1016.5
20210928173904 65 348 3.0 12.0 0.00 0.00 0.00 50 1016.5
20210928173404 65 290 3.0 7.0 0.00 0.00 0.00 51 1016.5
20210928172904 65 270 5.0 10.0 0.00 0.00 0.00 53 1016.8
20210928172405 64 285 2.0 6.0 0.00 0.00 0.00 53 1016.8
20210928171904 64 290 3.0 10.0 0.00 0.00 0.00 55 1016.8
20210928171403 64 275 2.0 7.0 0.00 0.00 0.00 56 1016.9
20210928170904 63 252 5.0 9.0 0.00 0.00 0.00 56 1016.9
20210928170403 63 283 4.0 9.0 0.00 0.00 0.00 57 1016.9
20210928165904 63 316 1.0 7.0 0.00 0.00 0.00 58 1016.9
20210928165404 62 347 2.0 5.0 0.00 0.00 0.00 59 1016.9
20210928164905 62 287 5.0 7.0 0.00 0.00 0.00 59 1016.9
20210928164404 62 278 3.0 5.0 0.00 0.00 0.00 61 1017.0
20210928163904 62 296 2.0 5.0 0.00 0.00 0.00 62 1017.0
20210928163404 62 291 2.0 3.0 0.00 0.00 0.00 62 1017.0
20210928162904 61 321 2.0 3.0 0.00 0.00 0.00 62 1017.0
20210928162403 61 25 2.0 5.0 0.00 0.00 0.00 63 1017.0
20210928161905 61 252 3.0 6.0 0.00 0.00 0.00 64 1017.0
20210928161404 60 196 1.0 3.0 0.00 0.00 0.00 66 1017.0
20210928160904 60 289 2.0 3.0 0.00 0.00 0.00 66 1017.0
20210928160405 60 339 2.0 3.0 0.00 0.00 0.00 67 1017.0
20210928155904 59 294 1.0 3.0 0.00 0.00 0.00 69 1017.0
20210928155405 59 296 2.0 5.0 0.00 0.00 0.00 70 1017.0
20210928154905 59 301 1.0 3.0 0.00 0.00 0.00 71 1017.0
20210928154404 58 246 1.0 3.0 0.00 0.00 0.00 72 1017.1
20210928153903 58 292 2.0 3.0 0.00 0.00 0.00 73 1017.1
20210928153404 57 288 2.0 3.0 0.00 0.00 0.00 73 1017.1
20210928152904 57 304 1.0 3.0 0.00 0.00 0.00 74 1017.0
20210928152403 57 324 0.0 2.0 0.00 0.00 0.00 74 1017.0
20210928151904 57 323 1.0 3.0 0.00 0.00 0.00 73 1017.0
20210928151404 57 186 1.0 2.0 0.00 0.00 0.00 73 1017.1
20210928150904 57 294 0.0 1.0 0.00 0.00 0.00 73 1017.1
20210928150403 57 294 2.0 3.0 0.00 0.00 0.00 73 1017.1
20210928145904 57 289 1.0 3.0 0.00 0.00 0.00 73 1017.0
20210928145404 57 288 1.0 3.0 0.00 0.00 0.00 72 1017.0
20210928144904 57 288 0.0 3.0 0.00 0.00 0.00 72 1017.0
20210928144405 57 267 1.0 3.0 0.00 0.00 0.00 72 1016.8
20210928143903 57 262 1.0 2.0 0.00 0.00 0.00 72 1016.8
20210928143404 57 262 1.0 3.0 0.00 0.01 0.00 72 1016.8
20210928142903 57 320 0.0 2.0 0.00 0.01 0.00 71 1016.8
20210928142403 57 320 1.0 3.0 0.00 0.01 0.00 71 1016.8
20210928141904 57 320 1.0 2.0 0.00 0.01 0.00 71 1016.8
20210928141404 57 325 0.0 2.0 0.00 0.01 0.00 71 1016.7
20210928140904 57 325 1.0 3.0 0.00 0.01 0.00 71 1016.7
20210928140404 57 319 1.0 3.0 0.00 0.01 0.00 70 1016.7
20210928135904 57 299 2.0 5.0 0.00 0.01 0.00 70 1016.7
20210928135404 57 277 3.0 6.0 0.00 0.01 0.00 70 1016.7
20210928134905 57 312 1.0 5.0 0.00 0.01 0.00 70 1016.7
20210928134404 57 321 1.0 3.0 0.00 0.01 0.00 70 1016.6
20210928133904 57 271 2.0 5.0 0.00 0.01 0.00 70 1016.6
20210928133404 57 290 2.0 5.0 0.00 0.01 0.00 71 1016.6
20210928132904 57 292 2.0 5.0 0.00 0.01 0.00 71 1016.7
20210928132404 57 273 1.0 3.0 0.00 0.01 0.00 72 1016.7
20210928131904 57 277 2.0 3.0 0.00 0.01 0.00 72 1016.7
20210928131403 57 312 1.0 3.0 0.00 0.01 0.00 72 1016.6
20210928130904 57 277 2.0 3.0 0.00 0.01 0.00 73 1016.6
20210928130405 57 272 1.0 2.0 0.00 0.01 0.00 74 1016.6
20210928125904 57 272 1.0 2.0 0.00 0.01 0.00 73 1017.0
20210928125404 57 272 0.0 2.0 0.00 0.01 0.00 73 1017.0
20210928124904 57 272 1.0 3.0 0.00 0.01 0.00 74 1017.0
20210928124404 57 272 1.0 3.0 0.00 0.01 0.00 74 1017.2
20210928123904 57 271 0.0 3.0 0.00 0.01 0.00 74 1017.2
20210928123404 57 277 1.0 2.0 0.00 0.01 0.00 74 1017.2
20210928122904 57 277 0.0 2.0 0.00 0.01 0.00 74 1017.2
20210928122404 57 277 0.0 2.0 0.00 0.01 0.00 74 1017.2
20210928121904 57 277 0.0 2.0 0.00 0.01 0.00 74 1017.2
20210928121404 57 277 0.0 2.0 0.00 0.01 0.00 74 1017.0
20210928120904 57 277 0.0 2.0 0.00 0.01 0.00 74 1017.0
20210928120405 57 277 2.0 3.0 0.00 0.01 0.00 75 1017.0
20210928115904 57 290 2.0 3.0 0.00 0.01 0.00 75 1017.1
20210928115404 57 5 0.0 1.0 0.00 0.01 0.00 75 1017.1
20210928114904 57 5 1.0 2.0 0.00 0.01 0.00 76 1017.1
20210928114404 57 49 2.0 3.0 0.00 0.01 0.00 76 1017.2
20210928113905 57 60 2.0 3.0 0.00 0.01 0.00 77 1017.2
20210928113404 57 67 2.0 3.0 0.00 0.01 0.00 77 1017.2
20210928112904 57 58 2.0 3.0 0.00 0.01 0.00 78 1017.1
20210928112404 57 68 2.0 3.0 0.00 0.01 0.00 78 1017.1
20210928111904 57 318 1.0 2.0 0.00 0.01 0.00 79 1017.1
20210928111405 57 318 1.0 2.0 0.00 0.01 0.00 79 1017.2
20210928110903 57 315 0.0 1.0 0.00 0.01 0.00 79 1017.2
20210928110404 57 315 0.0 1.0 0.00 0.01 0.00 79 1017.2
20210928105904 57 315 0.0 1.0 0.00 0.01 0.00 78 1017.2
20210928105404 57 314 1.0 3.0 0.00 0.01 0.00 78 1017.2
20210928104903 57 42 1.0 2.0 0.00 0.01 0.00 78 1017.2
20210928104403 57 63 1.0 2.0 0.00 0.01 0.00 78 1017.2
20210928103904 58 63 0.0 1.0 0.00 0.01 0.00 78 1017.2
20210928103404 58 63 1.0 2.0 0.00 0.01 0.00 78 1017.2
20210928102904 58 63 2.0 5.0 0.00 0.01 0.00 78 1017.0
20210928102404 58 42 2.0 3.0 0.00 0.01 0.00 78 1017.0
20210928101904 58 309 0.0 2.0 0.00 0.01 0.00 78 1017.0
20210928101404 58 309 0.0 0.0 0.00 0.01 0.00 78 1016.9
20210928100904 58 309 1.0 2.0 0.00 0.01 0.00 78 1016.9
20210928100404 58 308 0.0 1.0 0.00 0.01 0.00 78 1016.9
20210928095905 58 307 1.0 2.0 0.00 0.01 0.00 78 1017.0
20210928095404 58 307 0.0 3.0 0.00 0.01 0.00 78 1017.0
20210928094904 58 289 1.0 3.0 0.00 0.01 0.00 78 1017.0
20210928094404 58 290 1.0 2.0 0.00 0.01 0.00 78 1017.0
20210928093904 59 290 1.0 2.0 0.00 0.01 0.00 78 1017.0
20210928093403 59 290 2.0 3.0 0.00 0.01 0.00 78 1017.0
20210928092904 59 295 2.0 3.0 0.00 0.01 0.00 79 1017.3
20210928092405 59 297 0.0 1.0 0.00 0.01 0.00 78 1017.3
20210928091904 59 297 0.0 1.0 0.00 0.01 0.00 78 1017.3
20210928091404 59 296 1.0 2.0 0.00 0.01 0.00 79 1017.4
20210928090904 59 296 1.0 2.0 0.00 0.01 0.00 79 1017.4
20210928090404 59 297 1.0 2.0 0.00 0.01 0.00 79 1017.4
20210928085904 59 297 0.0 2.0 0.00 0.01 0.00 80 1017.4
20210928085405 60 297 0.0 1.0 0.00 0.01 0.00 80 1017.4
20210928084903 60 297 0.0 3.0 0.00 0.01 0.00 80 1017.4
20210928084404 60 325 0.0 1.0 0.00 0.01 0.00 80 1017.4
20210928083903 60 325 1.0 3.0 0.00 0.01 0.00 80 1017.4
20210928083404 61 280 0.0 2.0 0.00 0.01 0.00 80 1017.4
20210928082904 61 280 0.0 2.0 0.00 0.01 0.00 80 1017.5
20210928082404 61 280 0.0 1.0 0.00 0.01 0.00 79 1017.5
20210928081903 61 280 2.0 3.0 0.00 0.01 0.00 79 1017.5
20210928081404 61 293 2.0 5.0 0.00 0.01 0.00 79 1017.5
20210928080904 61 280 2.0 5.0 0.00 0.01 0.00 79 1017.5
20210928080404 61 263 3.0 6.0 0.00 0.01 0.00 79 1017.5
20210928075903 61 282 2.0 6.0 0.00 0.01 0.00 79 1017.4
20210928075403 62 279 2.0 5.0 0.00 0.01 0.00 79 1017.4
20210928074904 62 287 4.0 6.0 0.00 0.01 0.00 79 1017.4
20210928074404 62 273 2.0 6.0 0.00 0.01 0.00 79 1017.3
20210928073905 62 269 3.0 9.0 0.00 0.01 0.00 79 1017.3
20210928073404 62 288 5.0 8.0 0.00 0.01 0.00 79 1017.3
20210928072904 62 273 4.0 12.0 0.00 0.01 0.00 79 1017.3
20210928072404 62 276 3.0 10.0 0.00 0.01 0.00 79 1017.3
20210928071904 62 288 5.0 10.0 0.00 0.01 0.00 79 1017.3
20210928071404 62 284 4.0 9.0 0.00 0.01 0.00 78 1017.3
20210928070904 63 294 6.0 10.0 0.00 0.01 0.00 78 1017.3
20210928070404 63 279 6.0 12.0 0.00 0.01 0.00 78 1017.3
20210928065903 63 276 6.0 14.0 0.00 0.01 0.01 77 1017.2
20210928065404 63 276 5.0 12.0 0.00 0.01 0.01 77 1017.2
20210928064904 63 265 5.0 8.0 0.00 0.01 0.01 77 1017.2
20210928064404 63 271 6.0 9.0 0.00 0.01 0.01 76 1017.3
20210928063904 63 264 4.0 9.0 0.00 0.01 0.01 75 1017.3
20210928063404 63 281 3.0 6.0 0.00 0.01 0.01 75 1017.3
20210928062905 63 276 3.0 6.0 0.00 0.01 0.01 75 1017.2
20210928062404 63 265 3.0 7.0 0.00 0.01 0.01 75 1017.2
20210928061903 63 267 3.0 9.0 0.00 0.01 0.01 74 1017.2
20210928061404 63 273 5.0 10.0 0.00 0.01 0.01 74 1017.0
20210928060905 64 276 6.0 12.0 0.00 0.01 0.01 75 1017.0
20210928060404 64 269 4.0 12.0 0.00 0.01 0.01 75 1017.0
20210928055905 64 278 4.0 12.0 0.00 0.01 0.01 77 1016.8
20210928055404 64 276 4.0 9.0 0.00 0.01 0.01 77 1016.8
20210928054904 64 274 3.0 9.0 0.00 0.01 0.01 77 1016.8
20210928054404 64 267 6.0 12.0 0.00 0.01 0.01 78 1016.7
20210928053903 63 255 5.0 12.0 0.00 0.01 0.01 78 1016.7
20210928053404 63 276 7.0 13.0 0.00 0.01 0.01 78 1016.7
20210928052904 63 282 5.0 12.0 0.00 0.01 0.01 79 1016.9
20210928052404 63 252 6.0 12.0 0.00 0.01 0.01 80 1016.9
20210928051904 63 258 6.0 10.0 0.00 0.01 0.01 81 1016.9
20210928051403 63 255 7.0 12.0 0.00 0.01 0.01 82 1016.7
20210928050903 63 248 6.0 12.0 0.00 0.01 0.01 82 1016.7
20210928050405 63 260 8.0 16.0 0.00 0.01 0.01 82 1016.7
20210928045903 63 275 8.0 13.0 0.00 0.01 0.01 82 1016.5
20210928045404 63 270 9.0 14.0 0.00 0.01 0.01 82 1016.5
20210928044903 63 273 7.0 15.0 0.00 0.01 0.01 82 1016.5
20210928044404 64 269 9.0 15.0 0.00 0.01 0.01 82 1016.4
20210928043904 64 259 7.0 14.0 0.00 0.01 0.01 82 1016.4
20210928043404 64 260 5.0 8.0 0.00 0.01 0.01 82 1016.4
20210928042904 64 263 7.0 12.0 0.00 0.01 0.01 82 1016.4
20210928042405 64 289 5.0 10.0 0.00 0.01 0.01 82 1016.4
20210928041904 64 261 9.0 14.0 0.00 0.01 0.01 81 1016.4
20210928041404 65 257 6.0 14.0 0.00 0.01 0.01 81 1016.2
20210928040904 65 256 9.0 14.0 0.00 0.01 0.01 80 1016.2
20210928040403 65 261 6.0 14.0 0.00 0.01 0.01 80 1016.2
20210928035905 65 280 8.0 15.0 0.00 0.01 0.01 81 1016.0
20210928035404 65 240 3.0 6.0 0.00 0.01 0.01 82 1016.0
20210928034905 65 236 3.0 6.0 0.00 0.01 0.01 82 1016.0
20210928034404 65 205 3.0 7.0 0.00 0.01 0.01 81 1016.0
20210928033904 65 225 4.0 7.0 0.00 0.01 0.01 81 1016.0
20210928033404 65 263 3.0 7.0 0.00 0.01 0.01 81 1016.0
20210928032904 65 244 5.0 12.0 0.00 0.01 0.01 82 1015.9
20210928032404 65 254 3.0 8.0 0.00 0.01 0.01 82 1015.9
20210928031904 65 274 6.0 12.0 0.00 0.01 0.01 82 1015.9
20210928031405 65 281 7.0 12.0 0.00 0.01 0.01 82 1015.8
20210928030904 65 264 7.0 12.0 0.00 0.01 0.01 82 1015.8
20210928030404 65 269 6.0 15.0 0.00 0.01 0.01 82 1015.8
20210928025904 65 268 9.0 12.0 0.00 0.01 0.01 82 1015.4
20210928025405 65 266 10.0 14.0 0.00 0.01 0.01 82 1015.4
20210928024904 65 248 7.0 12.0 0.00 0.01 0.01 82 1015.4
20210928024404 65 282 7.0 13.0 0.00 0.01 0.01 82 1015.4
20210928023905 65 267 7.0 12.0 0.00 0.01 0.01 83 1015.4
20210928023404 65 265 6.0 12.0 0.00 0.01 0.01 83 1015.4